Weather History for Ephrata, WA

Change the Weather History Date:

Saturday, February 15, 2014

  Actual Average Record
Temperature  
Mean Temperature 34 °F 34 °F  
Max Temperature 40 °F 42 °F 59 °F (1982)
Min Temperature 27 °F 26 °F -4 °F (1956)
Degree Days  
Heating Degree Days 31 31  
Month to date heating degree days 602 485  
Since 1 July heating degree days 4214 4193  
Cooling Degree Days 0 0  
Month to date cooling degree days 0 0  
Year to date cooling degree days 0 0  
Moisture  
Dew Point 32 °F    
Average Humidity 86    
Maximum Humidity 96    
Minimum Humidity 75    
Precipitation  
Precipitation 0.28 in 0.03 in 0.40 in (1986)
Month to date precipitation 0.60 0.39  
Year to date precipitation 0.91 1.30  
Sea Level Pressure  
Sea Level Pressure 29.70 in    
Wind  
Wind Speed 9 mph (NNW)    
Max Wind Speed 15 mph    
Max Gust Speed 17 mph    
Visibility 9 miles    
Events Rain    
T = Trace of Precipitation, MM = Missing Value Source: NWS Daily Summary

Daily Weather History Graph

Daily Weather History Graph

Search for Another Location

Airport:

Trip Planner

Search our weather history database for the weather conditions in past years. The results will help you decide how hot, cold, wet, or windy it might be!

Date:

Astronomy

Feb. 15, 2014 Rise Set
Actual Time 7:02 AM PST 5:22 PM PST
Civil Twilight 6:31 AM PST 5:53 PM PST
Nautical Twilight 5:55 AM PST 6:29 PM PST
Astronomical Twilight 5:20 AM PST 7:05 PM PST
Moon 6:34 PM PST (2/15) 6:58 AM PST (2/15)
Length of Visible Light 11h 22m
Length of Day
10h 19m
Full, 99% of the Moon is Illuminated
Feb 15
Full
Feb 22
Last Quarter
Mar 1
New
Mar 8
First Quarter
Mar 16
Full

Hourly Weather History & Observations

Time (PST) Temp. Windchill Dew Point Humidity Pressure Visibility Wind Dir Wind Speed Gust Speed Precip Events Conditions
12:53 AM 33.1 °F 30.0 °F 27.0 °F 78% 29.94 in 10.0 mi Variable 3.5 mph - N/A   Clear
1:53 AM 30.9 °F 27.5 °F 27.0 °F 85% 29.94 in 10.0 mi WNW 3.5 mph - N/A   Clear
2:53 AM 30.0 °F 24.1 °F 26.1 °F 85% 29.94 in 10.0 mi NNE 5.8 mph - N/A   Clear
3:53 AM 28.9 °F 21.1 °F 25.0 °F 85% 29.93 in 10.0 mi North 8.1 mph - N/A   Clear
4:53 AM 28.9 °F 20.4 °F 25.0 °F 85% 29.93 in 10.0 mi North 9.2 mph - N/A   Clear
5:53 AM 28.0 °F 19.3 °F 25.0 °F 88% 29.92 in 10.0 mi North 9.2 mph - N/A   Clear
6:53 AM 30.0 °F 23.2 °F 27.0 °F 88% 29.91 in 10.0 mi North 6.9 mph - N/A   Clear
7:53 AM 30.0 °F 21.7 °F 27.0 °F 88% 29.91 in 10.0 mi NNE 9.2 mph - N/A   Clear
8:18 AM 32.0 °F 23.0 °F 28.4 °F 87% 29.88 in 10.0 mi NNE 11.5 mph - N/A   Mostly Cloudy
8:32 AM 32.0 °F 22.5 °F 30.2 °F 93% 29.87 in 10.0 mi NNE 12.7 mph - N/A   Overcast
8:53 AM 32.0 °F 23.6 °F 30.0 °F 92% 29.89 in 10.0 mi NNE 10.4 mph - N/A   Overcast
9:53 AM 34.0 °F 26.0 °F 32.0 °F 92% 29.85 in 10.0 mi North 10.4 mph - N/A   Overcast
10:44 AM 35.6 °F 27.1 °F 33.8 °F 93% 29.79 in 10.0 mi North 12.7 mph - N/A   Overcast
10:53 AM 36.0 °F 27.5 °F 33.1 °F 89% 29.81 in 10.0 mi North 12.7 mph - N/A   Overcast
11:53 AM 37.0 °F 29.8 °F 34.0 °F 89% 29.77 in 10.0 mi NNW 10.4 mph - 0.00 in Rain Light Rain
12:53 PM 37.0 °F 29.8 °F 35.1 °F 93% 29.72 in 5.0 mi NNW 10.4 mph - 0.05 in Rain Light Rain
1:22 PM 37.4 °F 29.8 °F 35.6 °F 93% 29.65 in 10.0 mi North 11.5 mph - 0.03 in Rain Light Rain
1:53 PM 39.0 °F 31.8 °F 36.0 °F 89% 29.66 in 9.0 mi North 11.5 mph - 0.04 in Rain Light Rain
2:53 PM 39.0 °F 31.8 °F 37.0 °F 93% 29.61 in 8.0 mi North 11.5 mph - 0.03 in Rain Light Rain
3:00 PM 39.2 °F 32.5 °F 37.4 °F 93% 29.57 in 8.0 mi North 10.4 mph - 0.01 in Rain Light Rain
3:53 PM 39.9 °F 32.9 °F 37.9 °F 93% 29.57 in 7.0 mi NNW 11.5 mph - 0.05 in Rain Light Rain
4:06 PM 39.2 °F 35.0 °F 37.4 °F 93% 29.53 in 7.0 mi NNW 5.8 mph - 0.02 in Rain Light Rain
4:53 PM 37.9 °F 30.9 °F 35.1 °F 89% 29.53 in 4.0 mi NW 10.4 mph - 0.06 in Rain Light Rain
5:53 PM 37.9 °F 31.5 °F 35.1 °F 89% 29.49 in 10.0 mi NNW 9.2 mph - 0.05 in Rain Light Rain
6:53 PM 37.9 °F 33.5 °F 35.1 °F 89% 29.46 in 10.0 mi NW 5.8 mph - 0.00 in   Overcast
7:53 PM 37.9 °F 32.1 °F 36.0 °F 93% 29.47 in 10.0 mi WNW 8.1 mph - 0.00 in Rain Light Rain
8:53 PM 37.0 °F 31.0 °F 36.0 °F 96% 29.45 in 7.0 mi SSW 8.1 mph - 0.00 in   Overcast
9:10 PM 37.4 °F 30.8 °F 35.6 °F 93% 29.42 in 8.0 mi South 9.2 mph - N/A   Overcast
9:53 PM 35.1 °F 26.4 °F 33.1 °F 92% 29.50 in 9.0 mi SSW 12.7 mph - N/A   Overcast
10:16 PM 33.8 °F 25.8 °F 33.8 °F 100% 29.49 in 6.0 mi SSW 10.4 mph - N/A   Scattered Clouds
10:53 PM 33.1 °F 24.9 °F 30.9 °F 92% 29.54 in 6.0 mi SSW 10.4 mph - N/A   Clear
11:53 PM 33.1 °F 28.7 °F 30.9 °F 92% 29.57 in 10.0 mi Variable 4.6 mph - N/A   Clear